Regional Weather Roundup
Issued by NWS

Home | Current Version | Previous Version | Graphics & Text | Print | Product List | Glossary On
Versions: 1 2 3 4 5 6 7 8 9 10 11 12 13 14 15 16 17 18 19 20 21 22 23 24 25 26 27 28 29 30 31 32 33 34 35 36 37 38 39 40 41 42 43 44 45 46 47 48 49 50
000
ASUS43 KBIS 250010
RWRND

NORTH DAKOTA REGIONAL WEATHER ROUNDUP
NATIONAL WEATHER SERVICE BISMARCK ND
700 PM CDT THU JUL 24 2014

NOTE: "FAIR" INDICATES FEW OR NO CLOUDS BELOW 12,000 FEET WITH NO
SIGNIFICANT WEATHER AND/OR OBSTRUCTIONS TO VISIBILITY.


NDZ001>003-009>011-017-250100-
NORTHWEST NORTH DAKOTA

CITY           SKY/WX    TMP DP  RH WIND       PRES   REMARKS
WILLISTON      SUNNY     83  65  54 SE10      29.65F
6HR MIN TEMP:  79; 6HR MAX TEMP:  87;

MINOT          MOSUNNY   77  64  64 SE9       29.72R
MINOT AFB      MOSUNNY   77  68  73 SE8       29.71R
$$

NDZ018>021-031>035-040>046-250100-
SOUTHWEST NORTH DAKOTA

CITY           SKY/WX    TMP DP  RH WIND       PRES   REMARKS
BISMARCK       MOSUNNY   79  65  62 E18       29.74F
6HR MIN TEMP:  76; 6HR MAX TEMP:  81;

DICKINSON      SUNNY     81  68  64 SE16      29.68F
GARRISON         N/A     77  67  71 SE12G22   29.71F
6HR MIN TEMP:  69; 6HR MAX TEMP:  77; 6HR PCP:  0.04;

HETTINGER ARPT SUNNY     83  68  60 E12       29.71F
$$

NDZ004>008-012>016-024-026-027-054-250100-
NORTHEAST NORTH DAKOTA

CITY           SKY/WX    TMP DP  RH WIND       PRES   REMARKS
GRAND FORKS    PTSUNNY   75  61  61 S7        29.89R
GRND FRKS AFB  CLOUDY    74  64  72 S8        29.91R
DEVILS LAKE    CLOUDY    72  61  68 SE26      29.68F
$$

NDZ022-023-025-028>030-036>039-047>053-250100-
SOUTHEAST NORTH DAKOTA

CITY           SKY/WX    TMP DP  RH WIND       PRES   REMARKS
FARGO          PTSUNNY   76  61  59 S12       29.87R
6HR MIN TEMP:  67; 6HR MAX TEMP:  78; 6HR PCP:  0.01;

JAMESTOWN      CLOUDY    73  65  75 NE5       29.86R
$$



USA.gov is the U.S. government's official web portal to all federal, state and local government web resources and services.